Tracking 17147 objects as of 5-July-2015
HD Live streaming from Space Station

COSMOS 1478

Track COSMOS 1478 now!
10-day predictions
COSMOS 1478 is classified as:


NORAD ID: 14176
Int'l Code: 1983-069F
Perigee: 1,469.8 km
Apogee: 1,488.5 km
Inclination: 74.0 °
Period: 115.4 minutes
Semi major axis: 7850 km
RCS: 0.7085 m2 (medium)
Launch date: July 6, 1983
Source: Commonwealth of Independent States (former USSR) (CIS)
Your satellite tracking list
Your tracking list is empty





NASA's NSSDC Master Catalog

Two Line Element Set (TLE):
1 14176U 83069F   15184.82465278 -.00000005  00000-0  70119-4 0  9994
2 14176 074.0272 300.8862 0011896 038.5640 131.9143 12.48208825458033

Source of the keplerian elements: AFSPC

N2YO: 263